TimeMDT,TemperatureF,Dew PointF,Humidity,Sea Level PressureIn,VisibilityMPH,Wind Direction,Wind SpeedMPH,Gust SpeedMPH,PrecipitationIn,Events,Conditions,WindDirDegrees,DateUTC
12:56 AM,63.0,60.1,90,29.98,-9999.0,Calm,Calm,-,N/A,,Unknown,0,2013-08-16 06:56:00
1:56 AM,62.1,59.0,90,29.97,-9999.0,NW,4.6,-,N/A,,Unknown,310,2013-08-16 07:56:00
2:56 AM,61.0,59.0,93,29.96,-9999.0,NW,3.5,-,N/A,,Unknown,320,2013-08-16 08:56:00
3:56 AM,59.0,57.0,93,29.96,-9999.0,North,3.5,-,N/A,,Unknown,350,2013-08-16 09:56:00
4:56 AM,59.0,57.0,93,29.96,-9999.0,NNE,3.5,-,N/A,,Unknown,20,2013-08-16 10:56:00
5:56 AM,57.0,55.9,96,29.99,-9999.0,West,6.9,-,N/A,,Unknown,260,2013-08-16 11:56:00
6:56 AM,59.0,57.9,96,29.99,-9999.0,Calm,Calm,-,N/A,,Unknown,0,2013-08-16 12:56:00
7:56 AM,66.0,64.0,93,30.01,-9999.0,Calm,Calm,-,N/A,,Unknown,0,2013-08-16 13:56:00
8:56 AM,73.0,64.0,73,30.00,-9999.0,South,5.8,-,N/A,,Unknown,170,2013-08-16 14:56:00
9:56 AM,77.0,64.9,66,30.01,-9999.0,South,9.2,-,N/A,,Unknown,180,2013-08-16 15:56:00
10:56 AM,79.0,64.0,60,30.01,-9999.0,South,10.4,-,N/A,,Unknown,180,2013-08-16 16:56:00
11:56 AM,81.0,60.1,49,30.00,-9999.0,South,11.5,-,N/A,,Unknown,170,2013-08-16 17:56:00
12:56 PM,82.0,57.9,44,30.00,-9999.0,South,11.5,-,N/A,,Unknown,190,2013-08-16 18:56:00
1:56 PM,84.0,57.9,41,29.98,-9999.0,SSW,9.2,-,N/A,,Unknown,210,2013-08-16 19:56:00
2:56 PM,86.0,57.0,37,29.97,-9999.0,SW,9.2,-,N/A,,Unknown,220,2013-08-16 20:56:00
3:56 PM,84.9,57.0,38,29.97,-9999.0,South,8.1,17.3,N/A,,Unknown,190,2013-08-16 21:56:00
4:56 PM,84.9,55.9,37,29.96,-9999.0,South,8.1,-,N/A,,Unknown,190,2013-08-16 22:56:00
5:56 PM,84.0,59.0,43,29.96,-9999.0,SSW,8.1,-,N/A,,Unknown,200,2013-08-16 23:56:00
6:56 PM,81.0,57.9,45,29.96,-9999.0,South,9.2,-,N/A,,Unknown,180,2013-08-17 00:56:00
7:56 PM,73.9,59.0,59,29.98,-9999.0,SSE,9.2,-,N/A,,Unknown,160,2013-08-17 01:56:00
8:56 PM,69.1,60.1,73,30.00,-9999.0,South,8.1,-,N/A,,Unknown,170,2013-08-17 02:56:00
9:56 PM,70.0,59.0,68,30.00,-9999.0,South,10.4,-,N/A,,Unknown,190,2013-08-17 03:56:00
10:56 PM,68.0,60.1,76,29.99,-9999.0,SSW,9.2,-,N/A,,Unknown,200,2013-08-17 04:56:00
11:56 PM,66.0,60.1,81,29.99,-9999.0,SSW,9.2,-,N/A,,Unknown,210,2013-08-17 05:56:00